sat.trackr.live / text

‹ back to catalog

GHGSAT-C13

NORAD 64548 · 2025-135W

PAYLOAD ACTIVE UNKNOWN

§ Identity

Operator
Country
CA
Launch date
2025-06-23
Launch site
AFWTR
Launch vehicle
Mass (kg)
RCS (m²)

External: N2YO · Heavens-Above · Gunter

§ Orbital elements

Epoch: 2026-09-21T20:35:26.592288Z

Period
94.61 min
Inclination
97.4854°
Eccentricity
0.0002325
Mean motion
15.22028920 rev/d
Perigee alt
498.1 km
Apogee alt
501.3 km
Semi-major
6,877.9 km
B*
1.8050e-4
RAAN
19.6447°
Arg perigee
109.4892°
Mean anomaly
250.6596°
Rev number
6,955

§ Raw data

GHGSAT-C131 64548U 25135W   26264.85794667  .00004054  00000+0  18050-3 0  99942 64548  97.4854  19.6447 0002325 109.4892 250.6596 15.22028920 69551

JSON: /api/v1/satellites/64548 · /tle

For live sub-satellite position, see the globe view (requires WebGL).

§ Visibility from observer

Set your observer location to see the next 7 days of passes ≥ 10°. The values pass through the URL so the page stays shareable.

No JS? Fill the form by hand. The geolocation button needs JavaScript.